• In Russia
  • List of Countries
  • For 7 days
  • Water Temperature
  • Satellite Maps
  • Weather Map
  • Weather Widgets
  • user-avatar
    Login

    Hourly Weather Quito

    Today, 20 May, Monday

    Time Temperature Precipitation Wind Pressure Humidity
    00:00 +15°C° 0 mm 1 mps 623 mmHg 48%
    01:00 +13°C° 0 mm 0 mps 623 mmHg 49%
    02:00 +13°C° 0 mm 0 mps 623 mmHg 50%
    03:00 +12°C° 0 mm 0 mps 622 mmHg 51%
    04:00 +13°C° 0 mm 1 mps 622 mmHg 52%
    05:00 +12°C° 0 mm 0 mps 623 mmHg 54%
    06:00 +13°C° 0 mm 0 mps 623 mmHg 55%
    07:00 +13°C° 0 mm 0 mps 623 mmHg 57%
    08:00 +19°C° 0 mm 1 mps 624 mmHg 50%
    09:00 +22°C° 0 mm 1 mps 625 mmHg 42%
    10:00 +25°C° 0 mm 2 mps 626 mmHg 35%
    11:00 +25°C° 0 mm 2 mps 626 mmHg 32%
    12:00 +26°C° 0 mm 2 mps 625 mmHg 29%
    13:00 +27°C° 0 mm 2 mps 625 mmHg 27%
    14:00 +27°C° 0 mm 2 mps 624 mmHg 29%
    15:00 +26°C° 0 mm 2 mps 624 mmHg 31%
    16:00 +26°C° 0 mm 2 mps 623 mmHg 34%
    17:00 +23°C° 0 mm 1 mps 623 mmHg 38%
    18:00 +21°C° 0 mm 1 mps 623 mmHg 42%
    19:00 +18°C° 0 mm 1 mps 622 mmHg 46%
    20:00 +18°C° 0 mm 1 mps 622 mmHg 46%
    21:00 +16°C° 0 mm 1 mps 622 mmHg 46%
    22:00 +16°C° 0 mm 1 mps 623 mmHg 45%
    23:00 +16°C° 0 mm 1 mps 622 mmHg 46%

    Tomorrow, 21 May, Tuesday

    Time Temperature Precipitation Wind Pressure Humidity
    00:00 +15°C° 0 mm 1 mps 622 mmHg 47%
    01:00 +15°C° 0 mm 1 mps 622 mmHg 48%
    02:00 +14°C° 0 mm 1 mps 622 mmHg 48%
    03:00 +14°C° 0 mm 1 mps 621 mmHg 49%
    04:00 +14°C° 0 mm 1 mps 621 mmHg 50%
    05:00 +14°C° 0 mm 1 mps 622 mmHg 52%
    06:00 +14°C° 0 mm 1 mps 622 mmHg 54%
    07:00 +14°C° 0 mm 1 mps 623 mmHg 57%
    08:00 +18°C° 0 mm 1 mps 624 mmHg 50%
    09:00 +20°C° 0 mm 2 mps 625 mmHg 44%
    10:00 +24°C° 0 mm 3 mps 626 mmHg 38%
    11:00 +25°C° 0 mm 2 mps 625 mmHg 36%
    12:00 +26°C° 0 mm 2 mps 625 mmHg 33%
    13:00 +27°C° 0 mm 2 mps 625 mmHg 31%
    14:00 +27°C° 0 mm 2 mps 624 mmHg 33%
    15:00 +26°C° 0 mm 2 mps 624 mmHg 36%
    16:00 +26°C° 0 mm 2 mps 623 mmHg 38%
    17:00 +24°C° 0 mm 1 mps 623 mmHg 44%
    18:00 +21°C° 0 mm 1 mps 622 mmHg 49%
    19:00 +19°C° 0 mm 1 mps 622 mmHg 55%
    20:00 +18°C° 0 mm 1 mps 622 mmHg 55%
    21:00 +18°C° 0 mm 1 mps 623 mmHg 55%
    22:00 +18°C° 0 mm 1 mps 623 mmHg 54%
    23:00 +18°C° 0 mm 1 mps 623 mmHg 54%

    Day after tomorrow, 22 May, Wednesday

    Time Temperature Precipitation Wind Pressure Humidity
    00:00 +16°C° 0 mm 1 mps 623 mmHg 55%
    01:00 +16°C° 0 mm 1 mps 622 mmHg 55%
    02:00 +15°C° 0 mm 0 mps 622 mmHg 55%
    03:00 +15°C° 0 mm 0 mps 622 mmHg 55%
    04:00 +15°C° 0 mm 0 mps 622 mmHg 55%
    05:00 +15°C° 0 mm 0 mps 622 mmHg 57%
    06:00 +15°C° 0 mm 0 mps 623 mmHg 60%
    07:00 +15°C° 0 mm 0 mps 623 mmHg 62%
    08:00 +18°C° 0 mm 0 mps 624 mmHg 54%
    09:00 +22°C° 0 mm 0 mps 625 mmHg 46%
    10:00 +27°C° 0 mm 1 mps 627 mmHg 38%
    11:00 +27°C° 0 mm 1 mps 626 mmHg 36%
    12:00 +28°C° 0 mm 1 mps 625 mmHg 34%
    13:00 +28°C° 0 mm 1 mps 625 mmHg 32%
    14:00 +27°C° 0 mm 1 mps 624 mmHg 35%
    15:00 +26°C° 0 mm 1 mps 623 mmHg 39%
    16:00 +25°C° 0 mm 1 mps 623 mmHg 42%
    17:00 +24°C° 0 mm 1 mps 623 mmHg 45%
    18:00 +22°C° 0 mm 1 mps 623 mmHg 47%
    19:00 +21°C° 0 mm 1 mps 622 mmHg 49%
    20:00 +20°C° 0 mm 1 mps 623 mmHg 49%
    21:00 +20°C° 0 mm 1 mps 623 mmHg 50%
    22:00 +17°C° 0 mm 0 mps 623 mmHg 50%
    23:00 +17°C° 0 mm 0 mps 623 mmHg 50%

    23 May, Thursday

    Time Temperature Precipitation Wind Pressure Humidity
    00:00 +16°C° 0 mm 0 mps 622 mmHg 50%
    01:00 +18°C° 0 mm 1 mps 622 mmHg 50%
    02:00 +16°C° 0 mm 1 mps 622 mmHg 53%
    03:00 +15°C° 0 mm 0 mps 622 mmHg 55%
    04:00 +14°C° 0 mm 0 mps 621 mmHg 57%
    05:00 +15°C° 0 mm 0 mps 622 mmHg 59%
    06:00 +15°C° 0 mm 0 mps 622 mmHg 60%
    07:00 +15°C° 0 mm 0 mps 623 mmHg 62%
    08:00 +20°C° 0 mm 1 mps 624 mmHg 55%
    09:00 +23°C° 0 mm 1 mps 625 mmHg 49%
    10:00 +26°C° 0 mm 2 mps 626 mmHg 42%
    11:00 +27°C° 0 mm 2 mps 625 mmHg 40%
    12:00 +27°C° 0 mm 2 mps 625 mmHg 38%
    13:00 +28°C° 0 mm 3 mps 624 mmHg 36%
    14:00 +27°C° 0 mm 2 mps 624 mmHg 39%
    15:00 +26°C° 0 mm 2 mps 623 mmHg 43%
    16:00 +26°C° 0 mm 2 mps 623 mmHg 46%
    17:00 +24°C° 0 mm 2 mps 623 mmHg 51%
    18:00 +21°C° 0 mm 2 mps 623 mmHg 56%
    19:00 +20°C° 0 mm 2 mps 623 mmHg 61%
    20:00 +19°C° 0 mm 2 mps 623 mmHg 61%
    21:00 +18°C° 0 mm 2 mps 623 mmHg 61%
    22:00 +19°C° 0 mm 1 mps 623 mmHg 61%
    23:00 +18°C° 0 mm 1 mps 623 mmHg 62%

    24 May, Friday

    Time Temperature Precipitation Wind Pressure Humidity
    00:00 +18°C° 0 mm 1 mps 622 mmHg 63%
    01:00 +16°C° 0 mm 1 mps 622 mmHg 65%
    02:00 +16°C° 0 mm 1 mps 622 mmHg 67%
    03:00 +16°C° 0 mm 1 mps 622 mmHg 69%
    04:00 +16°C° 0 mm 1 mps 622 mmHg 71%
    05:00 +16°C° 0 mm 1 mps 622 mmHg 72%
    06:00 +15°C° 0 mm 0 mps 623 mmHg 73%
    07:00 +15°C° 0 mm 0 mps 623 mmHg 74%
    08:00 +20°C° 0 mm 1 mps 624 mmHg 64%
    09:00 +23°C° 0 mm 2 mps 625 mmHg 54%
    10:00 +25°C° 0 mm 3 mps 626 mmHg 44%
    11:00 +26°C° 0 mm 3 mps 626 mmHg 41%
    12:00 +27°C° 0 mm 3 mps 625 mmHg 38%
    13:00 +28°C° 0 mm 3 mps 625 mmHg 35%
    14:00 +28°C° 0 mm 2 mps 624 mmHg 36%
    15:00 +27°C° 0 mm 2 mps 624 mmHg 36%
    16:00 +27°C° 0 mm 1 mps 624 mmHg 37%
    17:00 +25°C° 0 mm 1 mps 623 mmHg 42%
    18:00 +22°C° 0 mm 1 mps 623 mmHg 47%
    19:00 +18°C° 0 mm 0 mps 623 mmHg 52%
    20:00 +18°C° 0 mm 0 mps 623 mmHg 52%
    21:00 +19°C° 0 mm 1 mps 623 mmHg 53%
    22:00 +19°C° 0 mm 1 mps 623 mmHg 53%
    23:00 +19°C° 0 mm 1 mps 623 mmHg 52%

    25 May, Saturday

    Time Temperature Precipitation Wind Pressure Humidity
    00:00 +19°C° 0 mm 1 mps 623 mmHg 52%
    01:00 +18°C° 0 mm 0 mps 623 mmHg 51%
    02:00 +19°C° 0 mm 1 mps 623 mmHg 52%
    03:00 +19°C° 0 mm 1 mps 623 mmHg 53%
    04:00 +19°C° 0 mm 1 mps 623 mmHg 54%
    05:00 +19°C° 0 mm 1 mps 624 mmHg 56%
    06:00 +18°C° 0 mm 1 mps 624 mmHg 59%
    07:00 +18°C° 0 mm 1 mps 624 mmHg 61%
    08:00 +19°C° 0 mm 2 mps 625 mmHg 53%
    09:00 +22°C° 0 mm 3 mps 626 mmHg 45%
    10:00 +25°C° 0 mm 4 mps 626 mmHg 37%
    11:00 +26°C° 0 mm 4 mps 626 mmHg 35%
    12:00 +27°C° 0 mm 3 mps 625 mmHg 33%
    13:00 +28°C° 0 mm 3 mps 625 mmHg 30%
    14:00 +27°C° 0 mm 3 mps 625 mmHg 31%
    15:00 +27°C° 0 mm 2 mps 624 mmHg 32%
    16:00 +27°C° 0 mm 2 mps 624 mmHg 33%
    17:00 +24°C° 0 mm 1 mps 624 mmHg 38%
    18:00 +22°C° 0 mm 1 mps 623 mmHg 44%
    19:00 +17°C° 0 mm 0 mps 623 mmHg 49%
    20:00 +17°C° 0 mm 0 mps 623 mmHg 50%
    21:00 +18°C° 0 mm 1 mps 623 mmHg 51%
    22:00 +18°C° 0 mm 1 mps 623 mmHg 52%
    23:00 +16°C° 0 mm 1 mps 623 mmHg 54%
    Show more